Regional Weather Roundup
Issued by NWS

Home | Current Version | Previous Version | Graphics & Text | Print | Product List | Glossary On
Versions: 1 2 3 4 5 6 7 8 9 10 11 12 13 14 15 16 17 18 19 20 21 22 23 24 25 26 27 28 29 30 31 32 33 34 35 36 37 38 39 40 41 42 43 44 45 46 47 48 49 50
000
ASUS43 KIND 291559
RWRIN

WEATHER ROUNDUP FOR INDIANA
NATIONAL WEATHER SERVICE INDIANAPOLIS IN
1200 PM EDT MON JUN 29 2015

NOTE: "FAIR" INDICATES FEW OR NO CLOUDS BELOW 12,000 FEET WITH NO
SIGNIFICANT WEATHER AND/OR OBSTRUCTIONS TO VISIBILITY.

* - STATION DOES NOT REPORT WEATHER SUCH AS PRECIPITATION OR FOG.

+ - STATION NOT QUALITY CONTROLLED BY THE NATIONAL WEATHER SERVICE.
    USE DATA WITH CAUTION...ESPECIALLY DEWPOINT AND RELATIVE
    HUMIDITY OBSERVATIONS.

INZ001>003-010>013-019-020-291700-
NORTHWEST INDIANA

CITY           SKY/WX    TMP DP  RH WIND       PRES   REMARKS
GARY /AIRPORT/ CLOUDY   N/A N/A N/A E3        29.82S FOG
RENSSELAER +   CLOUDY    68  64  88 CALM      29.82S

$$

LMZ046-743>745-291700-
SOUTHERN LAKE MICHIGAN

STATION/POSITION TIME  TEMP    WIND        PRES    WAVE
                       AIR SEA DIR/SP/G            HT
                 (UTC) (F)     (DEG/KT/KT) (MB)    (FT)
BURNS HARBOR     1500   66     190/  4/  6 1010.5S
MICHIGAN CITY    1500   64     110/  6/  7   N/A
5NW MICH CITY    1500   64 64  130/  2/  2   N/A     0

$$

INZ004-005-014>016-021>024-291700-
NORTH CENTRAL INDIANA

CITY           SKY/WX    TMP DP  RH WIND       PRES   REMARKS
ELKHART        CLOUDY    70  59  68 SE10      29.84S
GOSHEN         CLOUDY    68  60  75 SE12      29.84R
SOUTH BEND     LGT RAIN  67  64  90 S5        29.83S

$$

INZ006>009-017-018-025>027-291700-
NORTHEAST INDIANA

CITY           SKY/WX    TMP DP  RH WIND       PRES   REMARKS
ANGOLA *+      CLOUDY    68  59  73 SE12      29.86S
FORT WAYNE     CLOUDY    63  59  87 SE14      29.85S

$$

INZ028-029-035-036-043>045-051>053-291700-
WEST CENTRAL INDIANA

CITY           SKY/WX    TMP DP  RH WIND       PRES   REMARKS
CRAWFORDSVL +  CLOUDY    65  62  89 E5        29.80S
GREENCASTLE +  CLOUDY    64  61  88 E3        29.81R FOG
LAFAYETTE      CLOUDY    69  63  81 SE5       29.79F
TERRE HAUTE    CLOUDY    72  66  81 W6        29.80R

$$

INZ030>032-037>040-046>048-054>057-064-065-291700-
CENTRAL INDIANA

CITY           SKY/WX    TMP DP  RH WIND       PRES   REMARKS
ANDERSON       CLOUDY    66  57  72 SE6       29.83F
COLUMBUS       CLOUDY    66  64  94 S5        29.80S
GREENWOOD *+   CLOUDY    64  63  94 E5        29.81S
INDIANAPOLIS   LGT RAIN  65  62  90 E6        29.79S FOG
-EAGLE CREEK   CLOUDY    64  63  96 SE6       29.80S FOG
KOKOMO *+      CLOUDY    66  61  82 SE6       29.81S
MT COMFORT *+  CLOUDY    64 N/A N/A SE6       29.82S
SHELBYVILLE    LGT RAIN  67  63  87 CALM      29.80S FOG

$$

INZ033-034-041-042-049-050-058-059-291700-
EAST CENTRAL INDIANA

CITY           SKY/WX    TMP DP  RH WIND       PRES   REMARKS
MUNCIE         CLOUDY    65  60  84 SE8       29.82F

$$

INZ060-061-067>069-081>083-085>088-291700-
SOUTHWEST INDIANA

CITY           SKY/WX    TMP DP  RH WIND       PRES   REMARKS
EVANSVILLE     MOSUNNY   79  68  69 W13       29.83S
HUNTINGBURG *+ CLOUDY    77  68  73 SW13G18   29.82S

$$

INZ062-063-066-070>080-084-089>092-291700-
SOUTH CENTRAL AND SOUTHEAST INDIANA

CITY           SKY/WX    TMP DP  RH WIND       PRES   REMARKS
BLOOMINGTON    CLOUDY    70  67  90 W7        29.80S
MADISON *+     CLOUDY    70  64  83 SW6       29.84S
SEYMOUR +      CLOUDY    70  70 100 S9        29.81R

$$




USA.gov is the U.S. government's official web portal to all federal, state and local government web resources and services.